Regional Weather Roundup
Issued by NWS Kansas City/Pleasant Hill, MO

Home | Current Version | Previous Version | Text Only | Print | Product List | Glossary On
Versions: 1 2 3 4 5 6 7 8 9 10 11 12 13 14 15 16 17 18 19 20 21 22 23 24 25 26 27 28 29 30 31 32 33 34 35 36 37 38 39 40 41 42 43 44 45 46 47 48 49 50
000
ASUS43 KEAX 300910
RWREAX

WEATHER ROUNDUP FOR EASTERN KANSAS AND NORTHWEST MISSOURI
NATIONAL WEATHER SERVICE KANSAS CITY/PLEASANT HILL MO
400 AM CDT WED JUL 30 2014

KSZ040-057-103>105-MOZ028-029-037-043-301000-
...KANSAS CITY METROPOLITAN AREA...

CITY           SKY/WX    TMP DP  RH WIND       PRES   REMARKS
K.C. INTL      MOCLDY    63  59  87 NE5       30.10S
K.C. DOWNTOWN  CLOUDY    69  60  73 CALM      30.08F
LEES SUMMIT    CLOUDY    65  60  84 CALM      30.10S
OLATHE - IXD   MOCLDY    69  60  73 CALM      30.10S
OLATHE - OJC   MOCLDY    69  59  70 CALM      30.09F
LAWRENCE       CLOUDY    67  63  87 CALM      30.09F

$$

MOZ001>008-011>017-020>025-030>033-038>040-044>046-053-054-301000-
...NORTHERN AND CENTRAL MISSOURI...

CITY           SKY/WX    TMP DP  RH WIND       PRES   REMARKS
ST. JOSEPH     MOCLDY    60  58  92 CALM      30.10S
MOSBY          CLOUDY    59  59 100 CALM      30.09S
WHITEMAN AFB   CLEAR     60  52  75 CALM      30.08S
CLINTON        MOCLDY    63  61  94 CALM      30.08S
SEDALIA        PTCLDY    60  57  89 CALM      30.09S
WARSAW         NOT AVBL
MARSHALL       PTCLDY    63  61  94 CALM      30.10S
CHILLICOTHE      N/A     60  56  86 CALM      30.10F
MOBERLY        PTCLDY    59  54  82 CALM      30.09S
KIRKSVILLE     MOCLDY    59  57  93 CALM      30.09F

$$

MOZ041-047>049-056>058-063>065-088>090-097-301000-
...EASTERN AND SOUTHERN MISSOURI...

CITY           SKY/WX    TMP DP  RH WIND       PRES   REMARKS
ST. LOUIS INTL MOCLDY    67  57  70 CALM      30.08F
SPIRIT OF STL  CLOUDY    62  59  90 CALM      30.07F
COLUMBIA       CLEAR     63  57  81 S3        30.08F
JEFFERSON CITY CLEAR     59  56  89 CALM      30.08S
MEXICO         PTCLDY   N/A N/A N/A CALM      30.08F
HANNIBAL       PTCLDY    61  57  88 CALM      30.08S
ROLLA          PTCLDY    63  53  70 E6        30.07F
LEBANON        CLEAR     63  55  77 CALM      30.09S
OSAGE BEACH    CLEAR     57  54  88 CALM      30.08S
SPRINGFIELD    MOCLDY    69  58  67 CALM      30.08S
BRANSON          N/A     68  63  83 CALM      30.10R
NEVADA         CLOUDY    68  63  83 CALM      30.09S
JOPLIN         CLOUDY    68  64  87 CALM      30.08F
WEST PLAINS    CLEAR     60  57  89 CALM      30.11S
MALDEN         CLEAR     63  57  82 CALM      30.09S

$$

IAZ060-094-KSZ022-034>040-054-083-096-NEZ052-066-093-301000-
...KANSAS...SOUTHEAST NEBRASKA AND IOWA...

CITY           SKY/WX    TMP DP  RH WIND       PRES   REMARKS
TOPEKA         CLOUDY    70  63  78 CALM      30.10S
MANHATTAN      LGT RAIN  65  63  93 CALM      30.11F
EMPORIA        CLOUDY    67  63  87 NE5       30.08F
CHANUTE        CLOUDY    69  63  81 NE5       30.07F
WICHITA        MOCLDY    70  61  73 S3        30.06F
OMAHA          PTCLDY    57  54  89 NW7       30.12F
LINCOLN        MOCLDY    59  56  89 N6        30.13F
FALLS CITY     MOCLDY    59  56  89 NW3       30.11S
LAMONI         CLEAR     58  53  84 NW3       30.10F
DES MOINES     CLEAR     60  56  86 CALM      30.08F

$$




USA.gov is the U.S. government's official web portal to all federal, state and local government web resources and services.